Location: Clarion
(42.7316°N, 93.7330°W)
Time: 09:13:17
(UTC+00:00)

Cosmos 2142 Rocket - Pass Details

Date: 22 April 2026
Orbit: 951 x 1005 km, 83.0° (Epoch: 17 May)

Event Time Altitude Azimuth Distance (km) Brightness Sun altitude
Exits shadow 08:23:00 72° 212° (SSW) 1,052 4.4 -27.5°
Maximum altitude 08:23:41 82° 277° (W) 1,016 4.4 -27.5°
Drops below altitude 10° 08:30:05 10° 6° (N) 2,773 7.6 -26.7°
Sets 08:32:37 0° 8° (N) 3,720 8.4 -26.5°
